www.pogodaiklimat.ru

Погода и климат >> Архив погоды >> Россия >> Нижегородская область >> Арзамас


ПОГОДА в Арзамасе

АРХИВ ПОГОДЫ в Арзамасе

Время (UTC), дата Ветер
(напр.,м/с)
 
Видим.   Явления Облачность Т
(С)
Тd
(С)
f
(%)
Тe
(С)
Тes
(С)
Комфортность P
(гПа)
Po
(гПа)
Тmin
(С)
Tmax
(С)
R
(мм)
R24
(мм)
S
(см)
18 9.06 ЮВ 1-2
{3}
4000 м 10/0
[Ac trans Cs]
+20.8 +12.1 57 +24 +24 комфорт 1022.9 1008.3
21 9.06 Ю 1-2
{3}
4000 м 3/0
[Ac trans]
+16.2 +10.7 70 +17 +17 тепло 1023.2 1008.4
00 10.06 штиль 0
{3}
4000 м 1/0
[Cc]
+12.4 +10.5 88 +12 +12 по сезону 1023.0 1008.0
03 10.06 Ю 1-2
{2}
20 км 1/0
[Cc]
+19.0 +11.3 61 +21 +23 комфорт 1022.4 1007.7 +12.1
06 10.06 ЮЗ 2-4
{4}
20 км ясно +25.7 +15.5 53 +29 +39 душно 1021.6 1007.4
09 10.06 ЮЗ 4-6
{8}
20 км 8/8 300 м
[Cu med, cong]
+29.8 +13.2 36 +31 +33 жарко 1020.4 1006.4
12 10.06 СЗ 1-3
{12}
20 км {гроза, ливн. осадки} 10/10 300 м
[St]
+21.9 +16.9 73 +26 +26 душно 1020.6 1006.2
15 10.06 З 1-1
{6}
20 км 10/10 300 м
[Sc]
+23.9 +16.9 65 +28 +28 душно 1019.5 1005.2 +30.6 2
18 10.06 Ю 1-1
{3}
4000 м 10/0
[Ac und]
+19.4 +16.4 83 +22 +22 комфорт 1019.7 1005.2
21 10.06 штиль 0
{2}
4000 м местами туман поземный 8/0
[Ac As]
+15.2 +14.1 93 +15 +15 по сезону 1020.6 1005.8
00 11.06 штиль 0
{1}
50 м туман н/о +13.4 +12.6 95 +13 +13 по сезону 1021.3 1006.4
03 11.06 штиль 0
{1}
20 км в посл. час туман ясно +18.1 +17.1 94 +18 +21 тепло 1021.4 1006.8 +12.9
06 11.06 С 3-4
{5}
20 км ясно +23.0 +11.4 48 +25 +34 комфорт 1021.7 1007.3
09 11.06 СЗ 3-5
{6}
20 км 3/0
[Ci]
+24.9 +12.2 45 +27 +39 жарко 1021.4 1007.1
12 11.06 СЗ 2-5
{7}
20 км 4/4 600 м
[Cu med, cong]
+26.6 +11.9 40 +28 +34 жарко 1019.6 1005.4
15 11.06 СЗ 3-5
{7}
20 км 3/0
[Ci fib]
+26.1 +8.1 32 +26 +28 жарко 1018.9 1004.7 +27.1
18 11.06 ЮЗ 1-1
{5}
20 км 3/0
[Ci fib]
+17.4 +12.7 74 +18 +18 тепло 1019.4 1004.8
21 11.06 штиль 0
{1}
4000 м местами туман поземный 4/0
[As trans Ci fib]
+12.6 +11.1 91 +12 +12 по сезону 1019.7 1004.8
00 12.06 СВ 1-1
{1}
4000 м местами туман поземный 4/3 300 м
[Sc Ci fib]
+10.7 +9.7 94 +10 +10 по сезону 1019.7 1004.7
03 12.06 ЮЗ 1-1
{1}
20 км 4/3 300 м
[Sc Ci fib]
+14.6 +13.3 92 +15 +17 по сезону 1019.1 1004.3 +10.0
06 12.06 СЗ 2-3
{3}
20 км 8/0
[Cs]
+23.3 +8.8 40 +25 +34 комфорт 1018.1 1003.7
09 12.06 СЗ 3-6
{7}
20 км 8/0
[Ac trans Cs]
+25.1 +8.9 36 +26 +35 жарко 1017.3 1003.0
12 12.06 СЗ 4-6
{7}
20 км 10/6 300 м
[Sc As op]
+24.9 +10.4 40 +26 +27 жарко 1016.4 1002.2
15 12.06 С 3-5
{8}
20 км 10/8 300 м
[Sc As op]
+20.6 +8.4 45 +22 +22 комфорт 1017.5 1003.0 +25.9
18 12.06 С 2-3
{7}
20 км 10/10 300 м
[Sc]
+18.2 +9.5 57 +19 +19 тепло 1018.1 1003.5
21 12.06 СВ 4-7
{11}
4000 м 3/0
[Ac trans]
+15.2 +4.5 49 +14 +14 по сезону 1020.7 1005.9
00 13.06 СВ 5-9
{10}
4000 м ясно +9.3 +0.4 54 +6 +6 холодно 1024.1 1008.9
03 13.06 СВ 4-7
{9}
20 км ясно +8.1 -0.2 56 +5 +7 очень
холодно
1026.0 1010.7 +7.1
06 13.06 СВ 4-7
{9}
20 км 3/3 300 м
[Sc]
+10.5 -0.5 46 +8 +13 очень
холодно
1027.1 1012.0
09 13.06 СВ 3-6
{8}
20 км 1/1 600 м
[Cu hum]
+15.0 +0.4 37 +15 +27 опасность
простуды
1027.1 1012.2
12 13.06 СЗ 3-6
{8}
20 км ясно +17.2 +0.4 32 +17 +26 прохладно 1026.1 1011.3
15 13.06 С 3-7
{9}
20 км 1/0
[Ci fib]
+17.9 +0.6 31 +18 +20 по сезону 1025.3 1010.5 +18.1
18 13.06 С 1-2
{6}
20 км 3/0
[Ci fib]
+13.6 +2.3 46 +14 +14 прохладно 1025.2 1010.2
21 13.06 С 1-1
{3}
4000 м ясно +6.4 +4.1 85 +5 +5 очень
холодно
1025.7 1010.4
00 14.06 штиль 0
{1}
4000 м 4/0
[Ac trans]
+2.6 +1.3 91 +1 +1 очень
холодно
1026.1 1010.6
03 14.06 штиль 0
{2}
20 км 8/8 300 м
[Sc]
+7.6 +5.3 85 +7 +7 холодно 1025.2 1009.9 +1.9
06 14.06 ЮЗ 3-5
{5}
20 км 9/9 300 м
[Sc]
+17.1 +4.1 42 +17 +18 по сезону 1022.9 1008.1
09 14.06 З 3-5
{8}
20 км 10/10 300 м
[Sc]
+17.0 +3.0 39 +17 +17 по сезону 1020.9 1006.2
12 14.06 Ю 1-2
{6}
20 км слаб. дождь 10/0
[As op]
+16.8 +5.9 49 +18 +20 по сезону 1017.8 1003.1
15 14.06 В 1-3
{4}
20 км дождь 10/0 300 м
[As op]
+12.3 +10.2 87 +12 +13 холодно 1016.4 1001.6 +18.7 2
18 14.06 ЮВ 1-2
{5}
20 км {дождь, морось} 10/10 300 м
[Sc]
+11.1 +9.3 89 +11 +11 холодно 1015.4 1000.5
21 14.06 СВ 2-3
{3}
4000 м 10/10 300 м
[Sc]
+10.6 +9.0 90 +9 +9 холодно 1015.8 1000.9
00 15.06 СВ 1-3
{4}
4000 м 10/10 300 м
[Sc]
+9.9 +8.2 89 +9 +9 прохладно 1015.5 1000.6
03 15.06 СВ 2-4
{4}
20 км 10/10 300 м
[Sc]
+10.0 +7.6 85 +8 +8 холодно 1016.8 1001.9 +9.4 2
06 15.06 СВ 2-3
{6}
20 км 10/10 300 м
[Sc]
+11.0 +7.0 76 +10 +10 холодно 1017.0 1002.1
09 15.06 ЮЗ 1-2
{3}
20 км 8/8 300 м
[Sc]
+13.9 +8.4 69 +14 +18 прохладно 1016.3 1001.6
12 15.06 ЮЗ 1-2
{4}
20 км 9/9 300 м
[Sc]
+16.0 +7.1 55 +17 +18 прохладно 1015.4 1000.8
15 15.06 З 1-2
{3}
20 км 8/5 300 м
[Sc Ac trans]
+16.9 +6.8 51 +18 +19 по сезону 1013.9 999.3 +17.2
18 15.06 штиль 0
{4}
20 км 8/0
[Ac trans Cs]
+11.4 +8.8 84 +11 +11 холодно 1014.2 999.3
21 15.06 штиль 0
{2}
4000 м местами туман поземный 9/0
[Ac trans Cs]
+8.9 +7.8 93 +8 +8 холодно 1014.0 999.0
00 16.06 штиль 0
{2}
4000 м дымка 3/0
[Ac trans]
+5.5 +4.8 95 +4 +4 очень
холодно
1013.9 998.6
03 16.06 СЗ 1-1
{2}
20 км в посл. час туман 8/0
[Ac As]
+10.6 +9.4 92 +10 +11 прохладно 1013.6 998.7 +4.0
06 16.06 З 2-3
{4}
20 км {туман} 9/4 300 м
[Sc Ac As]
+16.9 +8.5 58 +17 +20 по сезону 1013.3 998.7
09 16.06 СЗ 3-5
{7}
20 км 8/6 600 м
[Cu med, cong As op]
+17.1 +8.5 57 +17 +20 по сезону 1013.1 998.5
12 16.06 С 2-4
{7}
20 км 8/8 600 м
[Cu med, cong]
+19.8 +8.2 47 +21 +24 комфорт 1012.5 998.1
15 16.06 СЗ 2-5
{6}
20 км 6/6 300 м
[Sc diur, vesp]
+21.0 +8.2 44 +23 +24 комфорт 1012.2 997.8 +21.3

 

Местоположение метеостанции Арзамас (Нижегородская область, Россия): широта 55.37 долгота 43.78 высота над уровнем моря 124 м.

В архиве по умолчанию представлена погода в Арзамасе за последнюю неделю. Архивные данные за месяц целиком и за предыдущие месяцы, начиная с января 2011 года, Вы можете получить, выбрав интересующий диапазон дат из раскрывающегося списка и нажав кнопку "Ввод!".


*Определитесь, кто Вы:
робот инопланетянин человек

Внимание! Время в таблицах - всемирное. Для получения местного времени необходимо прибавить поправку, которая равна 3 ч.

Смотрите также архив погоды в соседних городах и на ближайших метеорологических станциях:

Погода в Дальнем Константиново (Нижегородская область, Россия) (51 км)
Погода в Лукоянове (Нижегородская область, Россия) (59 км)
Погода в Павлово (Нижегородская область, Россия) (80 км)
Погода в Темникове (Мордовия, Россия) (89 км)
Погода в Нижнем Новгороде аэропорт (Нижегородская область, Россия) (95 км)
Погода в Нижнем Новгороде (Нижегородская область, Россия) (101 км)
Погода в Краснослободске (Мордовия, Россия) (105 км)
Погода в Выксе (Нижегородская область, Россия) (105 км)
Погода в Большом Болдино (Нижегородская область, Россия) (105 км)
Погода в Лысково (Нижегородская область, Россия) (106 км)

Пояснения к столбцам:

Ветер - указаны скорость ветра в м/с - средняя за 10 мин, порывы в срок и между сроками (в фигурных скобках) и направление, откуда дует ветер: С - северный, СВ - северо-восточный, В - восточный, ЮВ - юго-восточный, Ю - южный, ЮЗ - юго-западный, З - западный, СЗ - северо-западный.
Видимость - горизонтальная дальность видимости в метрах или километрах. При видимости от 1 до 10 км при отсутствии осадков обычно наблюдается дымка, при ухудшении видимости до 1 км и менее - туман. В сухую погоду видимость может ухудшаться дымом, пылью или мглою.
Явления - указаны атмосферные явления, наблюдавшиеся в срок или в последний час перед сроком; фигурными скобками обозначены явления, наблюдавшиеся между сроками (за 1-3 часа до срока); квадратными скобками обозначены град или гололедные отложения с указанием их диаметра в мм.
Облачность - указаны через наклонную черту общая и нижняя облачность в баллах и высота нижней границы облаков в метрах; квадратными скобками обозначены формы облаков: Ci - перистые, Cs - перисто-слоистые, Cc - перисто-кучевые, Ac - высококучевые, As - высокослоистые, Sc - слоисто-кучевые, Ns - слоисто-дождевые, Cu - кучевые, Cb - кучево-дождевые. Подробнее классификацию облаков см. в Атласе облаков (PDF).
T - Температура воздуха - температура, измеренная на высоте 2 м над землей.
Td - Температура точки росы - температура, при понижении до которой содержащийся в воздухе водяной пар достигнет насыщения.
f - Относительная влажность воздуха - влажноcть воздуха, измеренная на высоте 2 м над землей.
Te - Эффективная температура - температура, которую ощущает одетый по сезону человек в тени. Характеристика душности погоды. При расчете учитывается влияние влажности воздуха и скорости ветра на теплоощущения человека.
Tes - Эффективная температура на солнце - температура, которую ощущает человек, с поправкой на солнечный нагрев. Характеристика знойности погоды. Зависит от высоты солнца над горизонтом, облачности и скорости ветра. Ночью, в пасмурную погоду, а также при ветре 12 м/с и более поправка равна нулю.
P - Атмосферное давление - приведенное к уровню моря атмосферное давление.
Po - Атмосферное давление - измеренное на уровне метеостанции атмосферное давление.
Tmin - Минимальная температура - минимум температуры воздуха на высоте 2 м над землей.
Tmax - Максимальная температура - максимум температуры воздуха на высоте 2 м над землей.
R - Количество осадков - Количество выпавших осадков за период времени, мм. При наведении курсора мыши на число - период времени, за который выпало указанное количество осадков.
R24 - Количество осадков - Количество выпавших осадков за 24 часа, мм.
S - Снежный покров - Высота снежного покрова, см. При наведении курсора мыши на число - состояние снежного покрова и степень покрытия местности в баллах.